TIANQI D

Last updated on Thu Jun 19 2025 00:02:04 GMT+0000 (Coordinated Universal Time)

1 64061U 25105D 25167.56645288 .00000029 00000+0 88362-4 0 9996 2 64061 44.9839 208.6842 0010668 105.3783 254.8234 14.11755194 4004
UTC large
Height (km)
Speed (km/s)
/
Latitude / Longitude
Inclination (degrees)
Orbital Period (minutes)
Azimuth
Elevation
Range (km)
Doppler Factor

Next 0 passes for location: London (51.5072 / 0.1276)

Sorry there are no passes over London.